Weather History for Fairbanks, AK

Change the Weather History Date:

Sunday, June 8, 2014

  Actual Average Record
Temperature  
Mean Temperature 65 °F 58 °F  
Max Temperature 74 °F 70 °F 87 °F (1923)
Min Temperature 55 °F 47 °F 32 °F (1932)
Degree Days  
Heating Degree Days 0 7  
Month to date heating degree days 60 65  
Since 1 June heating degree days 60 65  
Since 1 July heating degree days 12369 13574  
Cooling Degree Days 0 0  
Month to date cooling degree days 0 0  
Year to date cooling degree days 0 1  
Since 1 June cooling degree days 0 0  
Growing Degree Days 15 (Base 50)    
Moisture  
Dew Point 42 °F    
Average Humidity 43    
Maximum Humidity 77    
Minimum Humidity 22    
Precipitation  
Precipitation T in 0.03 in 0.75 in (1997)
Month to date precipitation 0.26 0.27  
Year to date precipitation 1.35 2.43  
Snow  
Snow 0.00 in 0.00 in T in (1949)
Month to date snowfall 0.0 0.0  
Since 1 June snowfall 0.0 0.0  
Since 1 July snowfall 48.9 65.0  
Snow Depth 0.00 in    
Sea Level Pressure  
Sea Level Pressure 29.60 in    
Wind  
Wind Speed 10 mph (WSW)    
Max Wind Speed 17 mph    
Max Gust Speed 23 mph    
Visibility 10 miles    
Events Rain , Thunderstorm    
T = Trace of Precipitation, MM = Missing Value Source: NWS Daily Summary

Daily Weather History Graph

Daily Weather History Graph

Search for Another Location

Airport:

Trip Planner

Search our weather history database for the weather conditions in past years. The results will help you decide how hot, cold, wet, or windy it might be!

Date:

Astronomy

Jun. 08, 2014 Rise Set
Actual Time 3:14 AM AKDT 12:28 AM AKDT
Civil Twilight Sun does not rise Sun does not rise
Nautical Twilight Sun does not rise Sun does not rise
Astronomical Twilight Sun does not rise Sun does not rise
Moon 5:43 PM AKDT (6/8) 2:39 AM AKDT (6/8)
Length of Visible Light 24h 00m
Length of Day
21h 13m
Waxing Gibbous, 78% of the Moon is Illuminated
Jun 8
Waxing Gibbous
Jun 12
Full
Jun 19
Last Quarter
Jun 27
New
Jul 5
First Quarter

Hourly Weather History & Observations

Time (AKDT) Temp. Dew Point Humidity Pressure Visibility Wind Dir Wind Speed Gust Speed Precip Events Conditions
12:53 AM 64.9 °F 39.0 °F 39% 29.57 in 10.0 mi West 6.9 mph - N/A   Mostly Cloudy
1:53 AM 64.0 °F 37.9 °F 38% 29.57 in 10.0 mi WSW 9.2 mph - N/A   Mostly Cloudy
2:53 AM 64.9 °F 35.1 °F 33% 29.57 in 10.0 mi West 11.5 mph - N/A   Mostly Cloudy
3:53 AM 64.0 °F 37.0 °F 37% 29.58 in 10.0 mi West 10.4 mph - N/A   Mostly Cloudy
4:53 AM 61.0 °F 37.9 °F 42% 29.57 in 10.0 mi WNW 16.1 mph - 0.00 in Rain Light Rain
5:53 AM 59.0 °F 39.0 °F 48% 29.60 in 10.0 mi SSW 5.8 mph - 0.00 in   Mostly Cloudy
6:53 AM 61.0 °F 37.9 °F 42% 29.58 in 10.0 mi WSW 11.5 mph 21.9 mph 0.00 in   Mostly Cloudy
7:53 AM 62.1 °F 37.9 °F 41% 29.58 in 10.0 mi West 11.5 mph 20.7 mph N/A   Mostly Cloudy
8:53 AM 64.0 °F 39.0 °F 40% 29.57 in 10.0 mi WSW 8.1 mph - N/A   Mostly Cloudy
9:53 AM 64.9 °F 39.9 °F 40% 29.58 in 10.0 mi WSW 8.1 mph - N/A   Mostly Cloudy
10:53 AM 68.0 °F 42.1 °F 39% 29.57 in 10.0 mi SW 6.9 mph - N/A   Mostly Cloudy
11:53 AM 69.8 °F 42.8 °F 38% 29.56 in 10.0 mi SW 8.1 mph - N/A   Mostly Cloudy
12:53 PM 71.1 °F 43.0 °F 36% 29.57 in 10.0 mi Variable 4.6 mph - N/A   Mostly Cloudy
1:53 PM 72.0 °F 42.1 °F 34% 29.58 in 10.0 mi Variable 3.5 mph - N/A   Mostly Cloudy
2:53 PM 70.0 °F 45.0 °F 41% 29.57 in 10.0 mi NW 13.8 mph 19.6 mph N/A   Mostly Cloudy
3:53 PM 72.0 °F 41.0 °F 33% 29.57 in 10.0 mi North 15.0 mph 23.0 mph N/A   Mostly Cloudy
4:11 PM 69.1 °F 41.0 °F 36% 29.57 in 10.0 mi NNE 17.3 mph - N/A Thunderstorm Thunderstorm
4:45 PM 71.1 °F 42.1 °F 35% 29.58 in 10.0 mi North 11.5 mph - N/A   Mostly Cloudy
4:53 PM 71.1 °F 42.1 °F 35% 29.60 in 10.0 mi ENE 10.4 mph - N/A   Mostly Cloudy
5:53 PM 64.9 °F 46.0 °F 50% 29.60 in 10.0 mi South 6.9 mph - N/A   Mostly Cloudy
6:53 PM 64.0 °F 46.9 °F 54% 29.61 in 10.0 mi SW 9.2 mph - N/A   Mostly Cloudy
7:53 PM 64.0 °F 46.0 °F 52% 29.63 in 10.0 mi WSW 10.4 mph 18.4 mph N/A   Mostly Cloudy
8:53 PM 63.0 °F 45.0 °F 52% 29.64 in 10.0 mi Variable 5.8 mph - N/A   Mostly Cloudy
9:53 PM 59.0 °F 46.9 °F 64% 29.68 in 10.0 mi SW 13.8 mph 19.6 mph N/A   Mostly Cloudy
10:53 PM 57.0 °F 48.0 °F 72% 29.70 in 10.0 mi SW 8.1 mph 16.1 mph N/A   Mostly Cloudy
11:53 PM 55.9 °F 48.9 °F 77% 29.72 in 10.0 mi Variable 5.8 mph - N/A   Mostly Cloudy